Location: Burtsch�tz
(51.0528°N, 12.1764°E)
Time: 01:59:58
(UTC+00:00)

Cosmos 1943 Rocket - Pass Details

Date: 29 October 2020
Orbit: 813 x 842 km, 71.0° (Epoch: 23 November)

Event Time Altitude Azimuth Distance (km) Brightness Sun altitude
Rises 16:12:34 0° 253° (WSW) 3,349 8.7 -4.2°
Reaches altitude 10° 16:15:28 10° 267° (W) 2,416 6.3 -4.6°
Maximum altitude 16:19:53 24° 321° (NW) 1,646 4.0 -5.3°
Drops below altitude 10° 16:24:19 10° 14° (NNE) 2,416 4.3 -5.9°
Sets 16:27:14 0° 28° (NNE) 3,350 4.9 -6.4°
